| time (UTC) | temp C | wind direction | speed KPH | gust KPH | rain 1hr cm | rain 24hr cm | rain mn cm | humidity % | barometer mb |
| 20260509014534 | 13 | 163 | 1.6 | 9.7 | 0.00 | 0.00 | 0.00 | 71 | 1021.7 |
| 20260509013023 | 13 | 165 | 1.6 | 14.5 | 0.00 | 0.00 | 0.00 | 70 | 1021.6 |
| 20260509011520 | 13 | 164 | 1.6 | 11.3 | 0.00 | 0.00 | 0.00 | 71 | 1021.6 |
| 20260509010019 | 13 | 188 | 4.8 | 12.9 | 0.00 | 0.00 | 0.00 | 69 | 1021.5 |
| 20260509004519 | 13 | 193 | 4.8 | 11.3 | 0.00 | 0.00 | 0.00 | 70 | 1021.5 |
| 20260509003019 | 13 | 178 | 3.2 | 14.5 | 0.00 | 0.00 | 0.00 | 69 | 1021.5 |
| 20260509001520 | 13 | 181 | 4.8 | 14.5 | 0.00 | 0.00 | 0.00 | 68 | 1021.5 |
| 20260509000017 | 13 | 207 | 4.8 | 11.3 | 0.00 | 0.00 | 0.00 | 70 | 1021.5 |
| 20260508234517 | 13 | 163 | 6.4 | 16.1 | 0.00 | 0.00 | 0.00 | 69 | 1021.4 |
| 20260508233016 | 13 | 199 | 4.8 | 14.5 | 0.00 | 0.00 | 0.00 | 70 | 1021.4 |
| 20260508231515 | 13 | 172 | 3.2 | 12.9 | 0.00 | 0.00 | 0.00 | 69 | 1021.4 |
| 20260508230014 | 13 | 190 | 4.8 | 14.5 | 0.00 | 0.00 | 0.00 | 68 | 1021.4 |
| 20260508224513 | 13 | 59 | 4.8 | 12.9 | 0.00 | 0.00 | 0.00 | 69 | 1021.3 |
| 20260508223013 | 13 | 209 | 6.4 | 22.5 | 0.00 | 0.00 | 0.00 | 70 | 1021.3 |
| 20260508221511 | 14 | 197 | 6.4 | 16.1 | 0.00 | 0.00 | 0.00 | 68 | 1021.3 |
| 20260508220032 | 13 | 179 | 6.4 | 14.5 | 0.00 | 0.00 | 0.00 | 69 | 1021.2 |
| 20260508214510 | 13 | 192 | 6.4 | 16.1 | 0.00 | 0.00 | 0.00 | 70 | 1021.2 |
| 20260508213010 | 13 | 181 | 6.4 | 16.1 | 0.00 | 0.00 | 0.00 | 70 | 1021.1 |
| 20260508211508 | 13 | 174 | 6.4 | 12.9 | 0.00 | 0.00 | 0.00 | 68 | 1021.0 |
| 20260508210006 | 13 | 183 | 6.4 | 17.7 | 0.00 | 0.00 | 0.00 | 67 | 1020.8 |
| 20260508204505 | 13 | 172 | 4.8 | 16.1 | 0.00 | 0.00 | 0.00 | 68 | 1020.7 |
| 20260508203003 | 13 | 175 | 8.0 | 19.3 | 0.00 | 0.00 | 0.00 | 70 | 1020.6 |
| 20260508194555 | 13 | 188 | 6.4 | 17.7 | 0.00 | 0.00 | 0.00 | 74 | 1020.4 |
| 20260508193103 | 13 | 182 | 6.4 | 20.9 | 0.00 | 0.00 | 0.00 | 74 | 1020.2 |
| 20260508191549 | 12 | 174 | 4.8 | 12.9 | 0.00 | 0.00 | 0.00 | 77 | 1020.1 |
| 20260508190101 | 11 | 170 | 6.4 | 19.3 | 0.00 | 0.00 | 0.00 | 76 | 1020.0 |
| 20260508184551 | 11 | 160 | 6.4 | 25.7 | 0.00 | 0.00 | 0.00 | 76 | 1020.0 |
| 20260508183046 | 11 | 171 | 8.0 | 14.5 | 0.00 | 0.00 | 0.00 | 77 | 1019.8 |
| 20260508181603 | 12 | 157 | 4.8 | 17.7 | 0.00 | 0.00 | 0.00 | 79 | 1019.5 |
| 20260508180048 | 12 | 184 | 4.8 | 19.3 | 0.00 | 0.00 | 0.00 | 79 | 1019.4 |
| 20260508174549 | 12 | 195 | 4.8 | 20.9 | 0.00 | 0.00 | 0.00 | 79 | 1019.4 |
| 20260508173039 | 12 | 186 | 8.0 | 24.1 | 0.00 | 0.00 | 0.00 | 78 | 1019.1 |
| 20260508171537 | 12 | 178 | 4.8 | 12.9 | 0.00 | 0.00 | 0.00 | 79 | 1018.8 |
| 20260508170033 | 12 | 184 | 6.4 | 14.5 | 0.00 | 0.00 | 0.00 | 78 | 1018.6 |
| 20260508164531 | 12 | 167 | 4.8 | 12.9 | 0.00 | 0.00 | 0.00 | 79 | 1018.4 |
| 20260508163037 | 11 | 159 | 4.8 | 12.9 | 0.00 | 0.00 | 0.00 | 80 | 1018.4 |
| 20260508161535 | 11 | 147 | 3.2 | 16.1 | 0.00 | 0.00 | 0.00 | 81 | 1018.1 |
| 20260508160030 | 11 | 202 | 8.0 | 16.1 | 0.00 | 0.00 | 0.00 | 79 | 1018.1 |
| 20260508154525 | 11 | 140 | 6.4 | 12.9 | 0.00 | 0.00 | 0.00 | 80 | 1017.9 |
| 20260508153025 | 11 | 151 | 3.2 | 12.9 | 0.00 | 0.00 | 0.00 | 82 | 1017.7 |
| 20260508151524 | 11 | 180 | 6.4 | 16.1 | 0.00 | 0.00 | 0.00 | 82 | 1017.9 |
| 20260508150024 | 11 | 173 | 3.2 | 17.7 | 0.00 | 0.00 | 0.00 | 82 | 1017.8 |
| 20260508144517 | 11 | 171 | 6.4 | 14.5 | 0.00 | 0.00 | 0.00 | 82 | 1017.5 |
| 20260508143023 | 11 | 221 | 3.2 | 17.7 | 0.00 | 0.00 | 0.00 | 85 | 1017.2 |
| 20260508141512 | 11 | 196 | 3.2 | 12.9 | 0.00 | 0.00 | 0.00 | 87 | 1017.0 |
| 20260508140016 | 11 | 167 | 4.8 | 11.3 | 0.00 | 0.00 | 0.00 | 85 | 1016.7 |
| 20260508134509 | 11 | 176 | 1.6 | 9.7 | 0.00 | 0.00 | 0.00 | 87 | 1016.7 |
| 20260508133003 | 11 | 214 | 1.6 | 20.9 | 0.00 | 0.00 | 0.00 | 86 | 1016.5 |
| 20260508131559 | 11 | 200 | 4.8 | 22.5 | 0.00 | 0.00 | 0.00 | 88 | 1016.5 |
| 20260508130058 | 11 | 207 | 3.2 | 11.3 | 0.00 | 0.00 | 0.00 | 88 | 1016.3 |
| 20260508124556 | 11 | 193 | 3.2 | 11.3 | 0.00 | 0.00 | 0.00 | 88 | 1016.4 |
| 20260508123106 | 10 | 184 | 3.2 | 6.4 | 0.00 | 0.00 | 0.00 | 88 | 1016.3 |
| 20260508121557 | 10 | 126 | 1.6 | 8.0 | 0.00 | 0.00 | 0.00 | 90 | 1016.2 |
| 20260508120053 | 10 | 229 | 0.0 | 3.2 | 0.00 | 0.00 | 0.00 | 89 | 1016.1 |
| 20260508114554 | 10 | 248 | 0.0 | 1.6 | 0.00 | 0.00 | 0.00 | 89 | 1015.9 |
| 20260508113153 | 10 | 248 | 0.0 | 3.2 | 0.00 | 0.00 | 0.00 | 89 | 1016.0 |
| 20260508111550 | 10 | 188 | 0.0 | 6.4 | 0.00 | 0.00 | 0.00 | 90 | 1016.0 |
| 20260508110049 | 10 | 190 | 1.6 | 4.8 | 0.00 | 0.00 | 0.00 | 90 | 1016.0 |
| 20260508104548 | 10 | 190 | 0.0 | 1.6 | 0.00 | 0.00 | 0.00 | 89 | 1015.9 |
| 20260508103050 | 10 | 190 | 0.0 | 3.2 | 0.00 | 0.00 | 0.00 | 89 | 1015.9 |
| 20260508101549 | 10 | 199 | 0.0 | 3.2 | 0.00 | 0.00 | 0.00 | 88 | 1015.8 |
| 20260508100047 | 10 | 201 | 0.0 | 3.2 | 0.00 | 0.00 | 0.00 | 87 | 1015.8 |
| 20260508094606 | 10 | 201 | 0.0 | 0.0 | 0.00 | 0.00 | 0.00 | 87 | 1015.7 |
| 20260508093046 | 10 | 201 | 0.0 | 0.0 | 0.00 | 0.00 | 0.00 | 86 | 1015.7 |
| 20260508091546 | 10 | 201 | 0.0 | 3.2 | 0.00 | 0.00 | 0.00 | 86 | 1015.7 |
| 20260508090049 | 10 | 180 | 0.0 | 1.6 | 0.00 | 0.00 | 0.00 | 86 | 1015.7 |
| 20260508084543 | 10 | 180 | 0.0 | 0.0 | 0.00 | 0.00 | 0.00 | 86 | 1015.8 |
| 20260508083042 | 10 | 180 | 0.0 | 0.0 | 0.00 | 0.00 | 0.00 | 85 | 1015.8 |
| 20260508081559 | 11 | 180 | 0.0 | 0.0 | 0.00 | 0.00 | 0.00 | 84 | 1016.0 |
| 20260508080036 | 11 | 180 | 0.0 | 0.0 | 0.00 | 0.00 | 0.00 | 82 | 1016.0 |
| 20260508074535 | 11 | 180 | 0.0 | 0.0 | 0.00 | 0.00 | 0.00 | 82 | 1016.1 |
| 20260508073036 | 11 | 180 | 0.0 | 0.0 | 0.00 | 0.00 | 0.00 | 82 | 1016.2 |
| 20260508071541 | 11 | 180 | 0.0 | 4.8 | 0.00 | 0.00 | 0.00 | 81 | 1016.2 |
| 20260508070028 | 12 | 117 | 3.2 | 14.5 | 0.00 | 0.00 | 0.00 | 80 | 1016.3 |
| 20260508064530 | 12 | 163 | 3.2 | 9.7 | 0.00 | 0.00 | 0.00 | 81 | 1016.3 |
| 20260508063043 | 12 | 180 | 3.2 | 6.4 | 0.00 | 0.00 | 0.00 | 81 | 1016.3 |
| 20260508061526 | 12 | 198 | 0.0 | 8.0 | 0.00 | 0.00 | 0.00 | 83 | 1016.2 |
| 20260508060029 | 12 | 209 | 1.6 | 6.4 | 0.00 | 0.00 | 0.00 | 81 | 1016.2 |
| 20260508054525 | 11 | 175 | 0.0 | 3.2 | 0.00 | 0.00 | 0.00 | 82 | 1016.2 |
| 20260508053025 | 12 | 173 | 0.0 | 8.0 | 0.00 | 0.00 | 0.00 | 81 | 1016.2 |
| 20260508051523 | 12 | 178 | 0.0 | 6.4 | 0.00 | 0.00 | 0.00 | 80 | 1016.2 |
| 20260508050022 | 12 | 130 | 3.2 | 12.9 | 0.00 | 0.00 | 0.00 | 80 | 1016.3 |
| 20260508044526 | 12 | 204 | 3.2 | 8.0 | 0.00 | 0.00 | 0.00 | 79 | 1016.5 |
| 20260508043022 | 12 | 211 | 3.2 | 11.3 | 0.00 | 0.00 | 0.00 | 78 | 1016.6 |
| 20260508041519 | 12 | 166 | 4.8 | 8.0 | 0.00 | 0.00 | 0.00 | 77 | 1016.6 |
| 20260508040019 | 12 | 184 | 1.6 | 8.0 | 0.00 | 0.00 | 0.00 | 78 | 1016.7 |
| 20260508034518 | 12 | 144 | 0.0 | 8.0 | 0.00 | 0.00 | 0.00 | 78 | 1016.6 |
| 20260508033018 | 13 | 184 | 1.6 | 8.0 | 0.00 | 0.00 | 0.00 | 77 | 1016.5 |
| 20260508031516 | 13 | 170 | 1.6 | 8.0 | 0.00 | 0.00 | 0.00 | 76 | 1016.5 |
| 20260508030015 | 13 | 170 | 0.0 | 6.4 | 0.00 | 0.00 | 0.00 | 77 | 1016.7 |
| 20260508024530 | 13 | 195 | 1.6 | 6.4 | 0.00 | 0.00 | 0.00 | 76 | 1016.7 |
| 20260508023022 | 14 | 163 | 1.6 | 8.0 | 0.00 | 0.00 | 0.00 | 77 | 1016.6 |
| 20260508021513 | 14 | 171 | 1.6 | 6.4 | 0.00 | 0.00 | 0.00 | 76 | 1016.8 |
| 20260508020011 | 14 | 193 | 1.6 | 8.0 | 0.00 | 0.00 | 0.00 | 76 | 1016.7 |